Location: Arborea
(39.7744°N, 8.5819°E)
Time: 07:02:57
(UTC+00:00)

Cosmos 2322 - Pass Details

Date: 03 June 2022
Orbit: 840 x 855 km, 71.0° (Epoch: 03 July)

Event Time Altitude Azimuth Distance (km) Brightness Sun altitude
Exits shadow 20:35:14 25° 157° (SSE) 1,674 4.7 -16.4°
Maximum altitude 20:38:00 40° 105° (ESE) 1,236 4.2 -16.8°
Drops below altitude 10° 20:43:18 10° 38° (NE) 2,492 6.3 -17.4°
Sets 20:45:53 0° 31° (NNE) 3,432 7.1 -17.7°
